User: anonymous   Login
Location: Invercargill
(46.4000°S, 168.3500°E)
Time: 22:43:32
(UTC+13:00)
Language:

SL-08 RB Rocket - Orbit

View from above orbital plane
View from above orbital plane
View from above satellite
View from above satellite

Ground track
Ground track

The orbit data is extracted from the following two-line orbital elements,

1 26387U 00033D   19077.63236941 +.00000064 +00000-0 +19200-4 0  9996
2 26387 097.8818 132.3180 0027872 101.3468 058.6957 14.68454347259402
Epoch (UTC): 18 March 2019 15:10:36
Eccentricity: 0.0027872
inclination: 97.8818°
perigee height: 646 km
apogee height: 685 km
right ascension of ascending node: 132.3180°
argument of perigee: 101.3468°
revolutions per day: 14.68454347
mean anomaly at epoch: 58.6957°
orbit number at epoch: 25940

The dashed part of the orbit path shows where the satellite is in the earth's shadow,  

DLR